Time,TemperatureF,DewpointF,PressureIn,WindDirection,WindDirectionDegrees,WindSpeedMPH,WindSpeedGustMPH,Humidity,HourlyPrecipIn,Conditions,Clouds,dailyrainin,SoftwareType,DateUTC
2013-02-06 00:02:00,72.0,-99.9,30.06,ESE,103,2.0,3.0,-999,-99.99,,,-99.99,,2013-02-06 05:02:00,
2013-02-06 00:12:00,72.0,-99.9,30.06,ESE,109,3.0,4.0,-999,-99.99,,,-99.99,,2013-02-06 05:12:00,
2013-02-06 00:22:00,71.0,-99.9,30.06,ESE,118,2.0,3.0,-999,-99.99,,,-99.99,,2013-02-06 05:22:00,
2013-02-06 00:32:00,71.0,-99.9,30.06,SE,125,2.0,3.0,-999,-99.99,,,-99.99,,2013-02-06 05:32:00,
2013-02-06 00:42:00,71.0,-99.9,30.06,ESE,122,2.0,2.0,-999,-99.99,,,-99.99,,2013-02-06 05:42:00,
2013-02-06 00:53:00,71.0,-99.9,30.06,SE,129,2.0,3.0,-999,-99.99,,,-99.99,,2013-02-06 05:53:00,
2013-02-06 01:01:00,71.0,-99.9,30.05,SE,127,3.0,4.0,-999,-99.99,,,-99.99,,2013-02-06 06:01:00,
2013-02-06 01:11:00,71.0,-99.9,30.05,SE,138,2.0,3.0,-999,-99.99,,,-99.99,,2013-02-06 06:11:00,
2013-02-06 01:22:00,71.0,-99.9,30.05,SE,134,2.0,4.0,-999,-99.99,,,-99.99,,2013-02-06 06:22:00,
2013-02-06 01:32:00,71.0,-99.9,30.05,SE,133,2.0,3.0,-999,-99.99,,,-99.99,,2013-02-06 06:32:00,
2013-02-06 01:42:00,71.0,-99.9,30.05,ESE,115,2.0,3.0,-999,-99.99,,,-99.99,,2013-02-06 06:42:00,
2013-02-06 01:52:00,71.0,-99.9,30.05,ESE,116,2.0,3.0,-999,-99.99,,,-99.99,,2013-02-06 06:52:00,
2013-02-06 02:02:00,71.0,-99.9,30.05,ESE,117,2.0,2.0,-999,-99.99,,,-99.99,,2013-02-06 07:02:00,
2013-02-06 02:11:00,71.0,-99.9,30.04,ESE,105,2.0,2.0,-999,-99.99,,,-99.99,,2013-02-06 07:11:00,
2013-02-06 02:22:00,71.0,-99.9,30.04,ESE,123,2.0,3.0,-999,-99.99,,,-99.99,,2013-02-06 07:22:00,
2013-02-06 02:32:00,71.0,-99.9,30.04,SE,129,2.0,3.0,-999,-99.99,,,-99.99,,2013-02-06 07:32:00,
2013-02-06 02:42:00,71.0,-99.9,30.04,SE,131,3.0,4.0,-999,-99.99,,,-99.99,,2013-02-06 07:42:00,
2013-02-06 02:52:00,71.0,-99.9,30.04,ESE,120,2.0,3.0,-999,-99.99,,,-99.99,,2013-02-06 07:52:00,
2013-02-06 03:01:00,71.0,-99.9,30.03,ESE,111,2.0,3.0,-999,-99.99,,,-99.99,,2013-02-06 08:01:00,
2013-02-06 03:11:00,71.0,-99.9,30.03,ESE,106,3.0,4.0,-999,-99.99,,,-99.99,,2013-02-06 08:11:00,
2013-02-06 03:21:00,71.0,-99.9,30.03,East,96,3.0,4.0,-999,-99.99,,,-99.99,,2013-02-06 08:21:00,
2013-02-06 03:32:00,71.0,-99.9,30.03,East,97,3.0,4.0,-999,-99.99,,,-99.99,,2013-02-06 08:32:00,
2013-02-06 03:42:00,71.0,-99.9,30.03,ENE,76,2.0,3.0,-999,-99.99,,,-99.99,,2013-02-06 08:42:00,
2013-02-06 03:53:00,71.0,-99.9,30.03,NE,39,4.0,5.0,-999,-99.99,,,-99.99,,2013-02-06 08:53:00,
2013-02-06 04:02:00,71.0,-99.9,30.03,NE,48,3.0,4.0,-999,-99.99,,,-99.99,,2013-02-06 09:02:00,
2013-02-06 04:11:00,71.0,-99.9,30.04,NE,52,3.0,3.0,-999,-99.99,,,-99.99,,2013-02-06 09:11:00,
2013-02-06 04:22:00,71.0,-99.9,30.03,NE,52,3.0,3.0,-999,-99.99,,,-99.99,,2013-02-06 09:22:00,
2013-02-06 04:32:00,70.0,-99.9,30.03,ENE,66,3.0,4.0,-999,-99.99,,,-99.99,,2013-02-06 09:32:00,
2013-02-06 04:42:00,70.0,-99.9,30.03,ENE,67,4.0,5.0,-999,-99.99,,,-99.99,,2013-02-06 09:42:00,
2013-02-06 04:52:00,70.0,-99.9,30.03,ENE,69,4.0,6.0,-999,-99.99,,,-99.99,,2013-02-06 09:52:00,
2013-02-06 05:01:00,70.0,-99.9,30.03,ENE,67,4.0,5.0,-999,-99.99,,,-99.99,,2013-02-06 10:01:00,
2013-02-06 05:11:00,69.0,-99.9,30.04,ENE,72,4.0,4.0,-999,-99.99,,,-99.99,,2013-02-06 10:11:00,
2013-02-06 05:22:00,70.0,-99.9,30.04,ENE,70,4.0,5.0,-999,-99.99,,,-99.99,,2013-02-06 10:22:00,
2013-02-06 05:32:00,70.0,-99.9,30.04,ENE,71,4.0,4.0,-999,-99.99,,,-99.99,,2013-02-06 10:32:00,
2013-02-06 05:42:00,70.0,-99.9,30.04,ENE,62,3.0,4.0,-999,-99.99,,,-99.99,,2013-02-06 10:42:00,
2013-02-06 05:52:00,70.0,-99.9,30.05,ENE,65,4.0,5.0,-999,-99.99,,,-99.99,,2013-02-06 10:52:00,
2013-02-06 06:02:00,70.0,-99.9,30.05,ENE,66,5.0,6.0,-999,-99.99,,,-99.99,,2013-02-06 11:02:00,
2013-02-06 06:11:00,70.0,-99.9,30.05,ENE,69,5.0,6.0,-999,-99.99,,,-99.99,,2013-02-06 11:11:00,
2013-02-06 06:22:00,70.0,-99.9,30.06,ENE,70,5.0,6.0,-999,-99.99,,,-99.99,,2013-02-06 11:22:00,
2013-02-06 06:33:00,70.0,-99.9,30.06,ENE,73,4.0,6.0,-999,-99.99,,,-99.99,,2013-02-06 11:33:00,
2013-02-06 06:42:00,70.0,-99.9,30.06,ENE,67,4.0,6.0,-999,-99.99,,,-99.99,,2013-02-06 11:42:00,
2013-02-06 06:53:00,70.0,-99.9,30.06,ENE,68,4.0,5.0,-999,-99.99,,,-99.99,,2013-02-06 11:53:00,
2013-02-06 07:02:00,70.0,-99.9,30.06,ENE,74,5.0,6.0,-999,-99.99,,,-99.99,,2013-02-06 12:02:00,
2013-02-06 07:12:00,70.0,-99.9,30.07,ENE,67,4.0,6.0,-999,-99.99,,,-99.99,,2013-02-06 12:12:00,
2013-02-06 07:22:00,70.0,-99.9,30.07,ENE,63,4.0,5.0,-999,-99.99,,,-99.99,,2013-02-06 12:22:00,
2013-02-06 07:32:00,70.0,-99.9,30.08,NE,49,6.0,7.0,-999,-99.99,,,-99.99,,2013-02-06 12:32:00,
2013-02-06 07:42:00,70.0,-99.9,30.08,ENE,63,5.0,7.0,-999,-99.99,,,-99.99,,2013-02-06 12:42:00,
2013-02-06 07:52:00,70.0,-99.9,30.08,ENE,65,5.0,7.0,-999,-99.99,,,-99.99,,2013-02-06 12:52:00,
2013-02-06 08:02:00,70.0,-99.9,30.08,ENE,66,7.0,9.0,-999,-99.99,,,-99.99,,2013-02-06 13:02:00,
2013-02-06 08:12:00,71.0,-99.9,30.08,NE,45,8.0,10.0,-999,-99.99,,,-99.99,,2013-02-06 13:12:00,
2013-02-06 08:22:00,71.0,-99.9,30.08,ENE,72,6.0,8.0,-999,-99.99,,,-99.99,,2013-02-06 13:22:00,
2013-02-06 08:32:00,71.0,-99.9,30.09,ENE,77,5.0,6.0,-999,-99.99,,,-99.99,,2013-02-06 13:32:00,
2013-02-06 08:42:00,71.0,-99.9,30.09,East,88,4.0,6.0,-999,-99.99,,,-99.99,,2013-02-06 13:42:00,
2013-02-06 08:52:00,71.0,-99.9,30.09,East,96,3.0,6.0,-999,-99.99,,,-99.99,,2013-02-06 13:52:00,
2013-02-06 09:02:00,72.0,-99.9,30.09,East,84,4.0,5.0,-999,-99.99,,,-99.99,,2013-02-06 14:02:00,
2013-02-06 09:11:00,72.0,-99.9,30.09,NNE,14,4.0,8.0,-999,-99.99,,,-99.99,,2013-02-06 14:11:00,
2013-02-06 09:22:00,73.0,-99.9,30.09,North,1,2.0,10.0,-999,-99.99,,,-99.99,,2013-02-06 14:22:00,
2013-02-06 09:32:00,73.0,-99.9,30.09,North,1,2.0,10.0,-999,-99.99,,,-99.99,,2013-02-06 14:32:00,
2013-02-06 09:42:00,74.0,-99.9,30.10,NNW,333,3.0,6.0,-999,-99.99,,,-99.99,,2013-02-06 14:42:00,
2013-02-06 09:52:00,75.0,-99.9,30.09,ESE,111,4.0,7.0,-999,-99.99,,,-99.99,,2013-02-06 14:52:00,
2013-02-06 10:02:00,75.0,-99.9,30.09,ESE,111,4.0,7.0,-999,-99.99,,,-99.99,,2013-02-06 15:02:00,
2013-02-06 10:11:00,76.0,-99.9,30.10,ESE,118,5.0,12.0,-999,-99.99,,,-99.99,,2013-02-06 15:11:00,
2013-02-06 10:21:00,75.0,-99.9,30.11,ESE,114,6.0,11.0,-999,-99.99,,,-99.99,,2013-02-06 15:21:00,
2013-02-06 10:32:00,76.0,-99.9,30.11,ESE,117,6.0,10.0,-999,-99.99,,,-99.99,,2013-02-06 15:32:00,
2013-02-06 10:42:00,76.0,-99.9,30.10,ESE,103,7.0,10.0,-999,-99.99,,,-99.99,,2013-02-06 15:42:00,
2013-02-06 10:52:00,76.0,-99.9,30.10,ESE,113,9.0,12.0,-999,-99.99,,,-99.99,,2013-02-06 15:52:00,
2013-02-06 11:02:00,77.0,-99.9,30.10,ESE,113,5.0,11.0,-999,-99.99,,,-99.99,,2013-02-06 16:02:00,
2013-02-06 11:11:00,77.0,-99.9,30.10,ESE,116,9.0,14.0,-999,-99.99,,,-99.99,,2013-02-06 16:11:00,
2013-02-06 11:22:00,77.0,-99.9,30.11,ESE,111,5.0,10.0,-999,-99.99,,,-99.99,,2013-02-06 16:22:00,
2013-02-06 11:32:00,76.0,-99.9,30.11,ESE,104,9.0,13.0,-999,-99.99,,,-99.99,,2013-02-06 16:32:00,
2013-02-06 11:42:00,76.0,-99.9,30.11,East,91,8.0,11.0,-999,-99.99,,,-99.99,,2013-02-06 16:42:00,
2013-02-06 11:52:00,77.0,-99.9,30.11,ESE,105,8.0,13.0,-999,-99.99,,,-99.99,,2013-02-06 16:52:00,
2013-02-06 12:02:00,77.0,-99.9,30.10,East,98,6.0,11.0,-999,-99.99,,,-99.99,,2013-02-06 17:02:00,
2013-02-06 12:12:00,77.0,-99.9,30.10,ESE,108,7.0,12.0,-999,-99.99,,,-99.99,,2013-02-06 17:12:00,
2013-02-06 12:22:00,77.0,-99.9,30.10,East,92,9.0,14.0,-999,-99.99,,,-99.99,,2013-02-06 17:22:00,
2013-02-06 12:33:00,76.0,-99.9,30.10,East,93,8.0,14.0,-999,-99.99,,,-99.99,,2013-02-06 17:33:00,
2013-02-06 12:42:00,76.0,-99.9,30.09,East,93,8.0,12.0,-999,-99.99,,,-99.99,,2013-02-06 17:42:00,
2013-02-06 12:53:00,77.0,-99.9,30.09,East,99,8.0,12.0,-999,-99.99,,,-99.99,,2013-02-06 17:53:00,
2013-02-06 13:02:00,77.0,-99.9,30.09,East,93,8.0,14.0,-999,-99.99,,,-99.99,,2013-02-06 18:02:00,
2013-02-06 13:12:00,76.0,-99.9,30.09,East,92,8.0,12.0,-999,-99.99,,,-99.99,,2013-02-06 18:12:00,
2013-02-06 13:23:00,76.0,-99.9,30.09,East,82,7.0,11.0,-999,-99.99,,,-99.99,,2013-02-06 18:23:00,
2013-02-06 13:33:00,76.0,-99.9,30.09,East,99,7.0,10.0,-999,-99.99,,,-99.99,,2013-02-06 18:33:00,
2013-02-06 13:42:00,76.0,-99.9,30.08,East,96,7.0,11.0,-999,-99.99,,,-99.99,,2013-02-06 18:42:00,
2013-02-06 13:52:00,76.0,-99.9,30.08,ESE,106,6.0,10.0,-999,-99.99,,,-99.99,,2013-02-06 18:52:00,
2013-02-06 14:02:00,76.0,-99.9,30.08,East,83,9.0,12.0,-999,-99.99,,,-99.99,,2013-02-06 19:02:00,
2013-02-06 14:11:00,76.0,-99.9,30.07,ESE,108,7.0,12.0,-999,-99.99,,,-99.99,,2013-02-06 19:11:00,
2013-02-06 14:22:00,77.0,-99.9,30.07,ESE,122,8.0,13.0,-999,-99.99,,,-99.99,,2013-02-06 19:22:00,
2013-02-06 14:32:00,76.0,-99.9,30.07,East,95,7.0,11.0,-999,-99.99,,,-99.99,,2013-02-06 19:32:00,
2013-02-06 14:42:00,77.0,-99.9,30.06,ESE,106,8.0,11.0,-999,-99.99,,,-99.99,,2013-02-06 19:42:00,
2013-02-06 14:52:00,76.0,-99.9,30.06,East,99,6.0,10.0,-999,-99.99,,,-99.99,,2013-02-06 19:52:00,
2013-02-06 15:01:00,76.0,-99.9,30.06,East,88,9.0,11.0,-999,-99.99,,,-99.99,,2013-02-06 20:01:00,
2013-02-06 15:11:00,76.0,-99.9,30.06,East,87,9.0,12.0,-999,-99.99,,,-99.99,,2013-02-06 20:11:00,
2013-02-06 15:22:00,76.0,-99.9,30.06,East,88,9.0,13.0,-999,-99.99,,,-99.99,,2013-02-06 20:22:00,
2013-02-06 15:32:00,76.0,-99.9,30.06,East,94,5.0,10.0,-999,-99.99,,,-99.99,,2013-02-06 20:32:00,
2013-02-06 15:42:00,76.0,-99.9,30.06,ESE,104,6.0,12.0,-999,-99.99,,,-99.99,,2013-02-06 20:42:00,
2013-02-06 15:52:00,76.0,-99.9,30.06,ESE,122,6.0,12.0,-999,-99.99,,,-99.99,,2013-02-06 20:52:00,
2013-02-06 16:02:00,76.0,-99.9,30.06,East,100,7.0,12.0,-999,-99.99,,,-99.99,,2013-02-06 21:02:00,
2013-02-06 16:11:00,76.0,-99.9,30.06,ESE,102,6.0,11.0,-999,-99.99,,,-99.99,,2013-02-06 21:11:00,
2013-02-06 16:22:00,76.0,-99.9,30.05,East,100,8.0,13.0,-999,-99.99,,,-99.99,,2013-02-06 21:22:00,
2013-02-06 16:32:00,77.0,-99.9,30.05,ESE,110,8.0,11.0,-999,-99.99,,,-99.99,,2013-02-06 21:32:00,
2013-02-06 16:42:00,76.0,-99.9,30.05,ESE,102,8.0,13.0,-999,-99.99,,,-99.99,,2013-02-06 21:42:00,
2013-02-06 16:52:00,76.0,-99.9,30.05,East,98,6.0,12.0,-999,-99.99,,,-99.99,,2013-02-06 21:52:00,
2013-02-06 17:01:00,76.0,-99.9,30.05,ESE,116,7.0,13.0,-999,-99.99,,,-99.99,,2013-02-06 22:01:00,
2013-02-06 17:11:00,76.0,-99.9,30.05,ESE,110,6.0,11.0,-999,-99.99,,,-99.99,,2013-02-06 22:11:00,
2013-02-06 17:22:00,76.0,-99.9,30.05,East,98,9.0,14.0,-999,-99.99,,,-99.99,,2013-02-06 22:22:00,
2013-02-06 17:32:00,75.0,-99.9,30.05,ESE,111,7.0,11.0,-999,-99.99,,,-99.99,,2013-02-06 22:32:00,
2013-02-06 17:42:00,75.0,-99.9,30.06,ESE,109,7.0,11.0,-999,-99.99,,,-99.99,,2013-02-06 22:42:00,
2013-02-06 17:52:00,75.0,-99.9,30.06,ESE,104,6.0,13.0,-999,-99.99,,,-99.99,,2013-02-06 22:52:00,
2013-02-06 18:01:00,75.0,-99.9,30.06,ESE,113,6.0,10.0,-999,-99.99,,,-99.99,,2013-02-06 23:01:00,
2013-02-06 18:11:00,75.0,-99.9,30.06,ESE,107,8.0,12.0,-999,-99.99,,,-99.99,,2013-02-06 23:11:00,
2013-02-06 18:21:00,75.0,-99.9,30.06,ESE,110,6.0,13.0,-999,-99.99,,,-99.99,,2013-02-06 23:21:00,
2013-02-06 18:32:00,74.0,-99.9,30.06,ESE,106,6.0,11.0,-999,-99.99,,,-99.99,,2013-02-06 23:32:00,
2013-02-06 18:42:00,74.0,-99.9,30.06,ESE,106,6.0,11.0,-999,-99.99,,,-99.99,,2013-02-06 23:42:00,
2013-02-06 18:52:00,74.0,-99.9,30.06,ESE,102,8.0,12.0,-999,-99.99,,,-99.99,,2013-02-06 23:52:00,
2013-02-06 19:02:00,74.0,-99.9,30.06,ESE,105,6.0,11.0,-999,-99.99,,,-99.99,,2013-02-07 00:02:00,
2013-02-06 19:11:00,74.0,-99.9,30.06,ESE,111,7.0,13.0,-999,-99.99,,,-99.99,,2013-02-07 00:11:00,
2013-02-06 19:22:00,74.0,-99.9,30.06,ESE,106,6.0,12.0,-999,-99.99,,,-99.99,,2013-02-07 00:22:00,
2013-02-06 19:32:00,74.0,-99.9,30.06,ESE,103,5.0,10.0,-999,-99.99,,,-99.99,,2013-02-07 00:32:00,
2013-02-06 19:42:00,74.0,-99.9,30.06,ESE,106,7.0,12.0,-999,-99.99,,,-99.99,,2013-02-07 00:42:00,
2013-02-06 19:52:00,74.0,-99.9,30.07,ESE,105,7.0,13.0,-999,-99.99,,,-99.99,,2013-02-07 00:52:00,
2013-02-06 20:01:00,74.0,-99.9,30.07,East,100,7.0,13.0,-999,-99.99,,,-99.99,,2013-02-07 01:01:00,
2013-02-06 20:11:00,74.0,-99.9,30.08,ESE,107,8.0,12.0,-999,-99.99,,,-99.99,,2013-02-07 01:11:00,
2013-02-06 20:21:00,74.0,-99.9,30.08,ESE,107,9.0,13.0,-999,-99.99,,,-99.99,,2013-02-07 01:21:00,
2013-02-06 20:32:00,74.0,-99.9,30.08,ESE,105,6.0,11.0,-999,-99.99,,,-99.99,,2013-02-07 01:32:00,
2013-02-06 20:42:00,74.0,-99.9,30.08,ESE,105,6.0,10.0,-999,-99.99,,,-99.99,,2013-02-07 01:42:00,
2013-02-06 20:52:00,74.0,-99.9,30.08,ESE,102,6.0,12.0,-999,-99.99,,,-99.99,,2013-02-07 01:52:00,
2013-02-06 21:02:00,74.0,-99.9,30.09,ESE,105,7.0,12.0,-999,-99.99,,,-99.99,,2013-02-07 02:02:00,
2013-02-06 21:12:00,74.0,-99.9,30.08,ESE,109,7.0,13.0,-999,-99.99,,,-99.99,,2013-02-07 02:12:00,
2013-02-06 21:21:00,74.0,-99.9,30.08,East,99,6.0,13.0,-999,-99.99,,,-99.99,,2013-02-07 02:21:00,
2013-02-06 21:32:00,74.0,-99.9,30.08,ESE,112,6.0,11.0,-999,-99.99,,,-99.99,,2013-02-07 02:32:00,
2013-02-06 21:42:00,74.0,-99.9,30.08,ESE,112,6.0,11.0,-999,-99.99,,,-99.99,,2013-02-07 02:42:00,
2013-02-06 21:52:00,74.0,-99.9,30.08,ESE,112,6.0,11.0,-999,-99.99,,,-99.99,,2013-02-07 02:52:00,
2013-02-06 22:02:00,74.0,-99.9,30.09,ESE,105,5.0,10.0,-999,-99.99,,,-99.99,,2013-02-07 03:02:00,
2013-02-06 22:11:00,74.0,-99.9,30.09,ESE,107,5.0,11.0,-999,-99.99,,,-99.99,,2013-02-07 03:11:00,
2013-02-06 22:22:00,74.0,-99.9,30.09,East,99,5.0,10.0,-999,-99.99,,,-99.99,,2013-02-07 03:22:00,
2013-02-06 22:32:00,74.0,-99.9,30.09,ESE,107,5.0,8.0,-999,-99.99,,,-99.99,,2013-02-07 03:32:00,
2013-02-06 22:42:00,74.0,-99.9,30.09,ESE,108,7.0,12.0,-999,-99.99,,,-99.99,,2013-02-07 03:42:00,
2013-02-06 22:52:00,74.0,-99.9,30.09,ESE,106,7.0,11.0,-999,-99.99,,,-99.99,,2013-02-07 03:52:00,
2013-02-06 23:01:00,74.0,-99.9,30.09,ESE,104,7.0,10.0,-999,-99.99,,,-99.99,,2013-02-07 04:01:00,
2013-02-06 23:11:00,73.0,-99.9,30.08,ESE,103,6.0,11.0,-999,-99.99,,,-99.99,,2013-02-07 04:11:00,
2013-02-06 23:22:00,73.0,-99.9,30.08,East,99,6.0,12.0,-999,-99.99,,,-99.99,,2013-02-07 04:22:00,
2013-02-06 23:32:00,73.0,-99.9,30.08,ESE,108,8.0,13.0,-999,-99.99,,,-99.99,,2013-02-07 04:32:00,
2013-02-06 23:42:00,73.0,-99.9,30.08,East,96,7.0,13.0,-999,-99.99,,,-99.99,,2013-02-07 04:42:00,
2013-02-06 23:53:00,73.0,-99.9,30.08,East,101,7.0,13.0,-999,-99.99,,,-99.99,,2013-02-07 04:53:00,